Location: Stoke Bliss
(52.2667°N, 2.5167°W)
Time: 09:29:54
(UTC+00:00)

Envisat - Pass Details

Date: 06 December 2021
Orbit: 764 x 766 km, 98.2° (Epoch: 25 January)

Event Time Altitude Azimuth Distance (km) Brightness Sun altitude
Rises 04:15:52 0° 22° (NNE) 3,247 6.6 -33.6°
Reaches altitude 10° 04:18:34 10° 36° (NE) 2,315 5.9 -33.2°
Maximum altitude 04:22:47 26° 92° (E) 1,494 5.0 -32.5°
Drops below altitude 10° 04:26:58 10° 148° (SSE) 2,300 5.7 -31.9°
Sets 04:29:38 0° 161° (SSE) 3,221 6.4 -31.5°
